Location: Igon
(43.1667°N, 0.2333°W)
Time: 05:16:21
(UTC+00:00)

Cosmos 405 Rocket - Pass Details

Date: 29 November 2020
Orbit: 489 x 554 km, 81.3° (Epoch: 27 January)

Event Time Altitude Azimuth Distance (km) Brightness Sun altitude
Rises 05:34:07 0° 183° (S) 2,550 6.4 -17.2°
Reaches altitude 10° 05:36:12 10° 182° (S) 1,677 5.4 -16.9°
Maximum altitude 05:39:52 71° 98° (E) 528 2.8 -16.2°
Drops below altitude 10° 05:43:36 10° 14° (NNE) 1,714 5.3 -15.6°
Sets 05:45:45 0° 13° (NNE) 2,613 6.3 -15.2°
